Regional Weather Roundup
Issued by NWS

Home | Current Version | Previous Version | Text Only | Print | Product List | Glossary On
Versions: 1 2 3 4 5 6 7 8 9 10 11 12 13 14 15 16 17 18 19 20 21 22 23 24 25 26 27 28 29 30 31 32 33 34 35 36 37 38 39 40 41 42 43 44 45 46 47 48 49 50
000
ASUS44 KOUN 250300
RWROK

WEATHER ROUNDUP FOR OKLAHOMA
NATIONAL WEATHER SERVICE NORMAN OK
1000 PM CDT MON APR 24 2017

NOTE: "FAIR" INDICATES FEW OR NO CLOUDS BELOW 12,000 FEET WITH NO
      SIGNIFICANT WEATHER AND/OR OBSTRUCTIONS TO VISIBILITY.

OKZ001>007-009>012-014-015-017-250400-
NORTHWEST OKLAHOMA AND THE PANHANDLE

CITY           SKY/WX    TMP DP  RH WIND       PRES   REMARKS
GAGE           CLOUDY    70  50  49 S26G36    29.44F
GUYMON         CLOUDY    65  35  33 SE9       29.40R
$$

OKZ016-021>023-033>039-044-045-250400-
SOUTHWEST OKLAHOMA

CITY           SKY/WX    TMP DP  RH WIND       PRES   REMARKS
LAWTON/REGL    CLOUDY    66  54  65 SE15      29.55F
LAWTON/FT SILL CLOUDY    66  55  67 S14       29.54F
FREDERICK      CLOUDY    71  52  50 SE20      29.49F
CLINTON        PTCLDY    69  50  50 S24G31    29.51F
HOBART         PTCLDY    70  51  51 S24G33    29.51F
ALTUS AFB      CLOUDY    70  50  48 SE18G26   29.50S
$$

OKZ018>020-024>031-250400-
CENTRAL OKLAHOMA

CITY           SKY/WX    TMP DP  RH WIND       PRES   REMARKS
OKLAHOMA CITY  CLOUDY    65  49  56 S17       29.57F
OKC/WILEY POST CLOUDY    67  50  54 S23G31    29.55F
OKC/TINKER AFB CLEAR     65  49  55 S16       29.57F
STILLWATER     PTCLDY    65  47  52 SE13      29.58R
GUTHRIE        CLOUDY    67  48  50 SE12      29.56F
$$

OKZ008-013-054>072-250400-
NORTHEAST OKLAHOMA

CITY           SKY/WX    TMP DP  RH WIND       PRES   REMARKS
TULSA          CLOUDY    68  47  46 S9        29.62R
TULSA/JONES    MOCLDY    66  47  50 S6        29.64R
PONCA CITY     MOCLDY    66  47  50 SE13      29.58R
BARTLESVILLE   CLEAR     53  49  86 S3        29.63S
MUSKOGEE       PTCLDY    64  47  53 S7        29.66R
$$

OKZ032-040>043-046>053-073>077-250400-
SOUTH CENTRAL/SOUTHEAST OKLAHOMA

CITY           SKY/WX    TMP DP  RH WIND       PRES   REMARKS
MCALESTER      PTCLDY    66  48  52 S8        29.66S
$$





USA.gov is the U.S. government's official web portal to all federal, state and local government web resources and services.